Regional Weather Roundup
Issued by NWS Sioux Falls, SD

Home | Current Version | Previous Version | Graphics & Text | Print | Product List | Glossary Off
Versions: 1 2 3 4 5 6 7 8 9 10 11 12 13 14 15 16 17 18 19 20 21 22 23 24 25 26 27 28 29 30 31 32 33 34 35 36 37 38 39 40 41 42 43 44 45 46 47 48 49 50

000
ASUS43 KFSD 020610
RWRFSD

WEATHER ROUNDUP FOR SE SOUTH DAKOTA/SW MINNESOTA/NW IOWA
NATIONAL WEATHER SERVICE SIOUX FALLS SD
100 AM CDT TUE JUN 02 2015

NOTE: "FAIR" INDICATES FEW OR NO CLOUDS BELOW 12,000 FEET WITH NO
SIGNIFICANT WEATHER AND OR OBSTRUCTIONS TO VISIBILITY.


SDZ038>040-050-052>070-020700-
SOUTHEAST SOUTH DAKOTA

CITY           SKY/WX    TMP DP  RH WIND       PRES   REMARKS
BROOKINGS      PTCLDY    63  48  59 S15       30.01R
CHAMBERLAIN    CLOUDY    67  58  73 S14G20    29.89S
6HR MIN TEMP:  67; 6HR MAX TEMP:  77;

HURON          CLOUDY    66  52  60 S15G25    29.91S
6HR MIN TEMP:  66; 6HR MAX TEMP:  79;

MADISON        FAIR      63  50  63 S17G23    30.00S
MITCHELL       CLOUDY    66  53  63 S16       29.95S
6HR MIN TEMP:  66; 6HR MAX TEMP:  80;

SIOUX FALLS    MOCLDY    64  50  60 S13       30.01S
6HR MIN TEMP:  64; 6HR MAX TEMP:  75;

WINNER         FAIR      68  58  70 S20G26    29.88F
YANKTON        MOCLDY    64  52  63 SE13      29.98S
$$

MNZ071-072-080-081-089-090-097-098-020700-
SOUTHWEST MINNESOTA

CITY           SKY/WX    TMP DP  RH WIND       PRES   REMARKS
FAIRMONT       CLEAR     55  39  54 SE9       30.08F
JACKSON        CLEAR     61  43  51 S9        30.07F
LUVERNE        PTCLDY    63  48  59 S9        30.03S
MARSHALL       CLEAR     61  45  55 S13       30.01S
6HR MIN TEMP:  61; 6HR MAX TEMP:  75;

MONTEVIDEO     CLEAR     64  43  45 S13       30.00F
PIPESTONE      PTCLDY    61  48  63 S10       30.02S
REDWOOD FALLS  CLEAR     61  39  44 SE13      30.04F
TRACY          CLEAR     62  47  57 S9        30.03F
WINDOM         CLEAR     59  43  55 SE8       30.06F
WORTHINGTON    CLEAR     61  43  51 S13       30.05F
$$

IAZ001>003-012>014-020>022-031-032-NEZ013-014-SDZ071-020700-
NORTHWEST IOWA

CITY           SKY/WX    TMP DP  RH WIND       PRES   REMARKS
CHEROKEE       CLEAR     60  48  66 S8        30.07S
DENISON        CLEAR     59  55  88 SE13      30.07S
ESTHERVILLE    CLEAR     57  43  59 S10       30.07F
LE MARS        PTCLDY    63  50  63 SE12G17   30.04S
ORANGE CITY    PTCLDY    59  48  67 SE8       30.05S
SHELDON        CLEAR     61  48  63 SE13      30.04S
SIOUX CITY     CLEAR     64  50  60 SE13      30.04S
6HR MIN TEMP:  63; 6HR MAX TEMP:  76;

SPENCER        CLEAR     58  47  66 S10       30.07F
6HR MIN TEMP:  58; 6HR MAX TEMP:  74;

$$

ABBREVIATIONS USED IN REMARKS
   TC - TEMPERATURE IN CELSIUS
  WCI - WIND CHILL INDEX
   HX - HEAT INDEX
  VSB - VISIBILITY




USA.gov is the U.S. government's official web portal to all federal, state and local government web resources and services.